Time,TemperatureF,DewpointF,PressureIn,WindDirection,WindDirectionDegrees,WindSpeedMPH,WindSpeedGustMPH,Humidity,HourlyPrecipIn,Conditions,Clouds,dailyrainin,SolarRadiationWatts/m^2,SoftwareType,DateUTC
2013-09-14 00:01:00,52.4,50.1,29.83,NW,315,0.0,1.0,92,0.00,,,0.00,1746,WeatherCatV1.15B25,2013-09-14 04:01:00,
2013-09-14 00:06:00,52.2,49.9,29.83,NW,315,0.0,0.0,92,0.00,,,0.00,1746,WeatherCatV1.15B25,2013-09-14 04:06:00,
2013-09-14 00:11:00,52.1,49.8,29.83,NW,312,0.0,0.0,92,0.00,,,0.00,1746,WeatherCatV1.15B25,2013-09-14 04:11:00,
2013-09-14 00:16:00,51.9,49.9,29.83,NW,312,0.0,0.0,93,0.00,,,0.00,1747,WeatherCatV1.15B25,2013-09-14 04:16:00,
2013-09-14 00:21:00,51.7,49.7,29.83,NW,312,0.0,1.0,93,0.00,,,0.00,1747,WeatherCatV1.15B25,2013-09-14 04:21:00,
2013-09-14 00:26:00,51.5,49.5,29.83,NW,316,0.0,0.0,93,0.00,,,0.00,1747,WeatherCatV1.15B25,2013-09-14 04:26:00,
2013-09-14 00:31:00,51.4,49.4,29.83,NW,316,0.0,0.0,93,0.00,,,0.00,1747,WeatherCatV1.15B25,2013-09-14 04:31:00,
2013-09-14 00:36:00,51.3,49.3,29.83,NW,316,0.0,1.0,93,0.00,,,0.00,1747,WeatherCatV1.15B25,2013-09-14 04:36:00,
2013-09-14 00:41:00,51.1,49.1,29.83,NW,316,0.0,1.0,93,0.00,,,0.00,1747,WeatherCatV1.15B25,2013-09-14 04:41:00,
2013-09-14 00:46:00,51.0,49.3,29.83,NW,315,0.0,0.0,94,0.00,,,0.00,1747,WeatherCatV1.15B25,2013-09-14 04:46:00,
2013-09-14 00:51:00,50.8,49.1,29.83,NW,316,0.0,0.0,94,0.00,,,0.00,1747,WeatherCatV1.15B25,2013-09-14 04:51:00,
2013-09-14 00:56:00,50.7,49.0,29.84,NW,315,0.0,1.0,94,0.00,,,0.00,1749,WeatherCatV1.15B25,2013-09-14 04:56:00,
2013-09-14 01:01:00,50.6,48.9,29.84,NW,316,0.0,1.0,94,0.00,,,0.00,1749,WeatherCatV1.15B25,2013-09-14 05:01:00,
2013-09-14 01:06:00,50.5,48.8,29.84,NW,316,0.0,1.0,94,0.00,,,0.00,1749,WeatherCatV1.15B25,2013-09-14 05:06:00,
2013-09-14 01:11:00,50.4,48.7,29.84,NW,318,0.0,2.0,94,0.00,,,0.00,1749,WeatherCatV1.15B25,2013-09-14 05:11:00,
2013-09-14 01:16:00,50.3,48.6,29.84,NW,318,0.0,0.0,94,0.00,,,0.00,1749,WeatherCatV1.15B25,2013-09-14 05:16:00,
2013-09-14 01:21:00,50.2,48.5,29.84,NW,318,0.0,1.0,94,0.00,,,0.00,1749,WeatherCatV1.15B25,2013-09-14 05:21:00,
2013-09-14 01:26:00,50.1,48.7,29.84,NW,317,0.0,1.0,95,0.00,,,0.00,1749,WeatherCatV1.15B25,2013-09-14 05:26:00,
2013-09-14 01:31:00,50.0,48.6,29.84,NW,317,0.0,0.0,95,0.00,,,0.00,1749,WeatherCatV1.15B25,2013-09-14 05:31:00,
2013-09-14 01:36:00,49.9,48.2,29.84,NW,317,0.0,0.0,94,0.00,,,0.00,1749,WeatherCatV1.15B25,2013-09-14 05:36:00,
2013-09-14 01:41:00,49.7,48.3,29.84,NNW,338,0.0,0.0,95,0.00,,,0.00,1749,WeatherCatV1.15B25,2013-09-14 05:41:00,
2013-09-14 01:46:00,49.6,47.9,29.84,NNW,337,0.0,1.0,94,0.00,,,0.00,1749,WeatherCatV1.15B25,2013-09-14 05:46:00,
2013-09-14 01:51:00,49.5,48.1,29.84,NNW,338,0.0,1.0,95,0.00,,,0.00,1749,WeatherCatV1.15B25,2013-09-14 05:51:00,
2013-09-14 01:56:00,49.4,48.0,29.84,NNW,338,0.0,0.0,95,0.00,,,0.00,1749,WeatherCatV1.15B25,2013-09-14 05:56:00,
2013-09-14 02:01:00,49.2,47.5,29.84,NNW,338,0.0,1.0,94,0.00,,,0.00,1749,WeatherCatV1.15B25,2013-09-14 06:01:00,
2013-09-14 02:06:00,49.2,47.5,29.85,NNW,337,0.0,0.0,94,0.00,,,0.00,1749,WeatherCatV1.15B25,2013-09-14 06:06:00,
2013-09-14 02:11:00,49.1,47.4,29.85,NNW,338,0.0,0.0,94,0.00,,,0.00,1749,WeatherCatV1.15B25,2013-09-14 06:11:00,
2013-09-14 02:16:00,49.0,47.3,29.85,NNW,338,0.0,1.0,94,0.00,,,0.00,1751,WeatherCatV1.15B25,2013-09-14 06:16:00,
2013-09-14 02:21:00,48.9,47.2,29.85,NNW,336,0.0,0.0,94,0.00,,,0.00,1751,WeatherCatV1.15B25,2013-09-14 06:21:00,
2013-09-14 02:26:00,48.8,47.2,29.85,NNW,336,0.0,0.0,94,0.00,,,0.00,1751,WeatherCatV1.15B25,2013-09-14 06:26:00,
2013-09-14 02:31:00,48.8,47.4,29.85,NNW,336,0.0,0.0,95,0.00,,,0.00,1751,WeatherCatV1.15B25,2013-09-14 06:31:00,
2013-09-14 02:36:00,48.7,47.3,29.85,NNW,336,0.0,0.0,95,0.00,,,0.00,1751,WeatherCatV1.15B25,2013-09-14 06:36:00,
2013-09-14 02:41:00,48.7,47.3,29.85,NNW,336,0.0,0.0,95,0.00,,,0.00,1751,WeatherCatV1.15B25,2013-09-14 06:41:00,
2013-09-14 02:46:00,48.6,47.2,29.86,NNW,336,0.0,0.0,95,0.00,,,0.00,1751,WeatherCatV1.15B25,2013-09-14 06:46:00,
2013-09-14 02:51:00,48.6,47.2,29.86,NNW,329,0.0,1.0,95,0.00,,,0.00,1751,WeatherCatV1.15B25,2013-09-14 06:51:00,
2013-09-14 02:56:00,48.6,47.5,29.86,NNW,329,0.0,0.0,96,0.00,,,0.00,1751,WeatherCatV1.15B25,2013-09-14 06:56:00,
2013-09-14 03:01:00,48.5,47.4,29.86,NNW,329,0.0,0.0,96,0.00,,,0.00,1751,WeatherCatV1.15B25,2013-09-14 07:01:00,
2013-09-14 03:06:00,48.5,47.4,29.86,NNW,329,0.0,1.0,96,0.00,,,0.00,1751,WeatherCatV1.15B25,2013-09-14 07:06:00,
2013-09-14 03:11:00,48.5,47.4,29.86,NNW,329,0.0,0.0,96,0.00,,,0.00,1751,WeatherCatV1.15B25,2013-09-14 07:11:00,
2013-09-14 03:16:00,48.4,47.3,29.86,NNW,329,0.0,0.0,96,0.00,,,0.00,1751,WeatherCatV1.15B25,2013-09-14 07:16:00,
2013-09-14 03:21:00,48.3,47.2,29.86,NNW,329,0.0,1.0,96,0.00,,,0.00,1751,WeatherCatV1.15B25,2013-09-14 07:21:00,
2013-09-14 03:26:00,48.3,47.2,29.86,NNW,329,0.0,0.0,96,0.00,,,0.00,1751,WeatherCatV1.15B25,2013-09-14 07:26:00,
2013-09-14 03:31:00,48.2,47.1,29.86,NNW,329,0.0,0.0,96,0.00,,,0.00,1751,WeatherCatV1.15B25,2013-09-14 07:31:00,
2013-09-14 03:36:00,48.1,47.0,29.87,NNW,329,0.0,0.0,96,0.00,,,0.00,1751,WeatherCatV1.15B25,2013-09-14 07:36:00,
2013-09-14 03:41:00,48.0,46.9,29.87,NNW,329,0.0,0.0,96,0.00,,,0.00,1751,WeatherCatV1.15B25,2013-09-14 07:41:00,
2013-09-14 03:46:00,48.0,47.2,29.86,NNW,329,0.0,0.0,97,0.00,,,0.00,1751,WeatherCatV1.15B25,2013-09-14 07:46:00,
2013-09-14 03:51:00,47.9,47.1,29.86,NNW,329,0.0,1.0,97,0.00,,,0.00,1751,WeatherCatV1.15B25,2013-09-14 07:51:00,
2013-09-14 03:56:00,47.8,47.0,29.86,NNW,329,0.0,0.0,97,0.00,,,0.00,1751,WeatherCatV1.15B25,2013-09-14 07:56:00,
2013-09-14 04:01:00,47.7,46.9,29.86,NNW,327,0.0,0.0,97,0.00,,,0.00,1751,WeatherCatV1.15B25,2013-09-14 08:01:00,
2013-09-14 04:06:00,47.6,46.8,29.86,NNW,330,0.0,2.0,97,0.00,,,0.00,1753,WeatherCatV1.15B25,2013-09-14 08:06:00,
2013-09-14 04:11:00,47.4,46.3,29.87,NNW,327,0.0,0.0,96,0.00,,,0.00,1753,WeatherCatV1.15B25,2013-09-14 08:11:00,
2013-09-14 04:16:00,47.4,46.3,29.87,NW,326,0.0,1.0,96,0.00,,,0.00,1753,WeatherCatV1.15B25,2013-09-14 08:16:00,
2013-09-14 04:21:00,47.4,46.0,29.87,NW,319,0.0,3.0,95,0.00,,,0.00,1753,WeatherCatV1.15B25,2013-09-14 08:21:00,
2013-09-14 04:26:00,47.4,46.0,29.87,NW,319,0.0,0.0,95,0.00,,,0.00,1753,WeatherCatV1.15B25,2013-09-14 08:26:00,
2013-09-14 04:31:00,47.3,45.9,29.87,NW,318,0.0,1.0,95,0.00,,,0.00,1753,WeatherCatV1.15B25,2013-09-14 08:31:00,
2013-09-14 04:36:00,47.3,45.9,29.88,NW,319,0.0,1.0,95,0.00,,,0.00,1753,WeatherCatV1.15B25,2013-09-14 08:36:00,
2013-09-14 04:41:00,47.3,45.9,29.88,NW,319,1.0,1.0,95,0.00,,,0.00,1753,WeatherCatV1.15B25,2013-09-14 08:41:00,
2013-09-14 04:46:00,47.2,45.8,29.88,NW,319,0.0,0.0,95,0.00,,,0.00,1753,WeatherCatV1.15B25,2013-09-14 08:46:00,
2013-09-14 04:51:00,47.1,45.7,29.88,NW,318,0.0,0.0,95,0.00,,,0.00,1753,WeatherCatV1.15B25,2013-09-14 08:51:00,
2013-09-14 04:56:00,47.1,45.7,29.88,NW,319,0.0,1.0,95,0.00,,,0.00,1753,WeatherCatV1.15B25,2013-09-14 08:56:00,
2013-09-14 05:01:00,47.0,45.6,29.88,NW,318,0.0,0.0,95,0.00,,,0.00,1753,WeatherCatV1.15B25,2013-09-14 09:01:00,
2013-09-14 05:06:00,47.0,45.6,29.88,NW,319,0.0,1.0,95,0.00,,,0.00,1753,WeatherCatV1.15B25,2013-09-14 09:06:00,
2013-09-14 05:11:00,46.9,45.5,29.88,NW,310,0.0,1.0,95,0.00,,,0.00,1753,WeatherCatV1.15B25,2013-09-14 09:11:00,
2013-09-14 05:16:00,46.8,45.4,29.88,NW,310,0.0,1.0,95,0.00,,,0.00,1753,WeatherCatV1.15B25,2013-09-14 09:16:00,
2013-09-14 05:21:00,46.8,45.4,29.88,NW,310,0.0,1.0,95,0.00,,,0.00,1753,WeatherCatV1.15B25,2013-09-14 09:21:00,
2013-09-14 05:26:00,46.8,45.4,29.89,NW,310,0.0,1.0,95,0.00,,,0.00,1753,WeatherCatV1.15B25,2013-09-14 09:26:00,
2013-09-14 05:31:00,46.8,45.4,29.88,NW,309,0.0,0.0,95,0.00,,,0.00,1753,WeatherCatV1.15B25,2013-09-14 09:31:00,
2013-09-14 05:36:00,46.8,45.4,29.89,NW,313,0.0,0.0,95,0.00,,,0.00,1753,WeatherCatV1.15B25,2013-09-14 09:36:00,
2013-09-14 05:41:00,46.7,45.6,29.89,NW,313,0.0,2.0,96,0.00,,,0.00,1753,WeatherCatV1.15B25,2013-09-14 09:41:00,
2013-09-14 05:46:00,46.7,45.6,29.89,NW,313,0.0,1.0,96,0.00,,,0.00,1753,WeatherCatV1.15B25,2013-09-14 09:46:00,
2013-09-14 05:51:00,46.7,45.6,29.89,NW,313,0.0,0.0,96,0.00,,,0.00,1753,WeatherCatV1.15B25,2013-09-14 09:51:00,
2013-09-14 05:56:00,46.7,45.6,29.89,NW,313,0.0,0.0,96,0.00,,,0.00,1753,WeatherCatV1.15B25,2013-09-14 09:56:00,
2013-09-14 06:02:00,46.7,45.6,29.89,NW,313,0.0,0.0,96,0.00,,,0.00,1753,WeatherCatV1.15B25,2013-09-14 10:02:00,
2013-09-14 06:07:00,46.6,45.5,29.89,NW,313,0.0,2.0,96,0.00,,,0.00,1753,WeatherCatV1.15B25,2013-09-14 10:07:00,
2013-09-14 06:12:00,46.6,45.5,29.90,NW,313,0.0,1.0,96,0.00,,,0.00,1753,WeatherCatV1.15B25,2013-09-14 10:12:00,
2013-09-14 06:17:00,46.6,45.5,29.90,NW,313,0.0,1.0,96,0.00,,,0.00,1753,WeatherCatV1.15B25,2013-09-14 10:17:00,
2013-09-14 06:22:00,46.6,45.5,29.90,NW,313,0.0,0.0,96,0.00,,,0.00,1753,WeatherCatV1.15B25,2013-09-14 10:22:00,
2013-09-14 06:27:00,46.7,45.6,29.90,NW,313,0.0,2.0,96,0.00,,,0.00,1753,WeatherCatV1.15B25,2013-09-14 10:27:00,
2013-09-14 06:32:00,46.6,45.2,29.90,NW,313,0.0,1.0,95,0.00,,,0.00,1753,WeatherCatV1.15B25,2013-09-14 10:32:00,
2013-09-14 06:37:00,46.6,45.5,29.90,NW,323,1.0,1.0,96,0.00,,,0.00,1753,WeatherCatV1.15B25,2013-09-14 10:37:00,
2013-09-14 06:42:00,46.7,45.6,29.91,NW,324,0.0,0.0,96,0.00,,,0.00,1753,WeatherCatV1.15B25,2013-09-14 10:42:00,
2013-09-14 06:47:00,46.6,45.5,29.91,NW,324,0.0,0.0,96,0.00,,,0.00,1753,WeatherCatV1.15B25,2013-09-14 10:47:00,
2013-09-14 06:52:00,46.6,45.5,29.92,NW,324,0.0,0.0,96,0.00,,,0.00,1753,WeatherCatV1.15B25,2013-09-14 10:52:00,
2013-09-14 06:57:00,46.5,45.4,29.92,NW,324,0.0,0.0,96,0.00,,,0.00,1753,WeatherCatV1.15B25,2013-09-14 10:57:00,
2013-09-14 07:02:00,46.4,45.3,29.92,NW,324,0.0,0.0,96,0.00,,,0.00,1753,WeatherCatV1.15B25,2013-09-14 11:02:00,
2013-09-14 07:07:00,46.4,45.3,29.92,NW,324,0.0,0.0,96,0.00,,,0.00,1753,WeatherCatV1.15B25,2013-09-14 11:07:00,
2013-09-14 07:12:00,46.4,45.3,29.93,NW,324,0.0,0.0,96,0.00,,,0.00,1753,WeatherCatV1.15B25,2013-09-14 11:12:00,
2013-09-14 07:17:00,46.5,45.4,29.93,NW,324,0.0,0.0,96,0.00,,,0.00,1753,WeatherCatV1.15B25,2013-09-14 11:17:00,
2013-09-14 07:22:00,46.7,45.6,29.93,NW,323,0.0,0.0,96,0.00,,,0.00,1753,WeatherCatV1.15B25,2013-09-14 11:22:00,
2013-09-14 07:27:00,46.7,45.6,29.93,NW,323,0.0,0.0,96,0.00,,,0.00,1753,WeatherCatV1.15B25,2013-09-14 11:27:00,
2013-09-14 07:32:00,46.7,45.6,29.93,NW,324,0.0,0.0,96,0.00,,,0.00,1753,WeatherCatV1.15B25,2013-09-14 11:32:00,
2013-09-14 07:37:00,46.8,45.7,29.93,NW,324,0.0,0.0,96,0.00,,,0.00,1753,WeatherCatV1.15B25,2013-09-14 11:37:00,
2013-09-14 07:42:00,46.8,45.7,29.93,NW,324,0.0,0.0,96,0.00,,,0.00,1753,WeatherCatV1.15B25,2013-09-14 11:42:00,
2013-09-14 07:47:00,46.9,45.8,29.93,NW,323,0.0,0.0,96,0.00,,,0.00,1753,WeatherCatV1.15B25,2013-09-14 11:47:00,
2013-09-14 07:52:00,47.1,46.0,29.93,NW,324,0.0,0.0,96,0.00,,,0.00,1753,WeatherCatV1.15B25,2013-09-14 11:52:00,
2013-09-14 07:57:00,47.2,46.1,29.94,NW,323,0.0,0.0,96,0.00,,,0.00,1753,WeatherCatV1.15B25,2013-09-14 11:57:00,
2013-09-14 08:02:00,47.4,46.3,29.94,NW,324,0.0,0.0,96,0.00,,,0.00,1751,WeatherCatV1.15B25,2013-09-14 12:02:00,
2013-09-14 08:07:00,47.6,46.5,29.94,NW,324,0.0,0.0,96,0.00,,,0.00,1751,WeatherCatV1.15B25,2013-09-14 12:07:00,
2013-09-14 08:12:00,47.7,46.3,29.94,NW,311,0.0,0.0,95,0.00,,,0.00,1751,WeatherCatV1.15B25,2013-09-14 12:12:00,
2013-09-14 08:17:00,47.9,46.5,29.95,NW,311,0.0,0.0,95,0.00,,,0.00,1751,WeatherCatV1.15B25,2013-09-14 12:17:00,
2013-09-14 08:22:00,48.1,46.5,29.95,NW,311,0.0,1.0,94,0.00,,,0.00,1751,WeatherCatV1.15B25,2013-09-14 12:22:00,
2013-09-14 08:27:00,48.4,46.8,29.94,NW,309,0.0,0.0,94,0.00,,,0.00,1749,WeatherCatV1.15B25,2013-09-14 12:27:00,
2013-09-14 08:32:00,48.6,47.0,29.95,NW,309,0.0,1.0,94,0.00,,,0.00,1749,WeatherCatV1.15B25,2013-09-14 12:32:00,
2013-09-14 08:37:00,48.8,47.2,29.95,NW,312,0.0,2.0,94,0.00,,,0.00,1749,WeatherCatV1.15B25,2013-09-14 12:37:00,
2013-09-14 08:42:00,48.9,47.0,29.95,NW,312,0.0,1.0,93,0.00,,,0.00,1747,WeatherCatV1.15B25,2013-09-14 12:42:00,
2013-09-14 08:47:00,48.9,47.0,29.95,NNW,331,1.0,1.0,93,0.00,,,0.00,1747,WeatherCatV1.15B25,2013-09-14 12:47:00,
2013-09-14 08:52:00,49.0,47.1,29.95,NNW,331,0.0,2.0,93,0.00,,,0.00,1747,WeatherCatV1.15B25,2013-09-14 12:52:00,
2013-09-14 08:57:00,49.1,47.2,29.95,NW,323,0.0,0.0,93,0.00,,,0.00,1747,WeatherCatV1.15B25,2013-09-14 12:57:00,
2013-09-14 09:02:00,49.2,47.3,29.95,NNW,327,0.0,0.0,93,0.00,,,0.00,1747,WeatherCatV1.15B25,2013-09-14 13:02:00,
2013-09-14 09:07:00,49.3,47.4,29.96,NNW,327,0.0,2.0,93,0.00,,,0.00,1747,WeatherCatV1.15B25,2013-09-14 13:07:00,
2013-09-14 09:12:00,49.5,47.6,29.96,NNW,331,1.0,1.0,93,0.00,,,0.00,1746,WeatherCatV1.15B25,2013-09-14 13:12:00,
2013-09-14 09:17:00,49.7,47.8,29.96,NNW,330,0.0,0.0,93,0.00,,,0.00,1746,WeatherCatV1.15B25,2013-09-14 13:17:00,
2013-09-14 09:22:00,49.9,48.0,29.96,NNW,330,0.0,0.0,93,0.00,,,0.00,1746,WeatherCatV1.15B25,2013-09-14 13:22:00,
2013-09-14 09:27:00,50.2,48.3,29.96,NW,326,0.0,2.0,93,0.00,,,0.00,1744,WeatherCatV1.15B25,2013-09-14 13:27:00,
2013-09-14 09:32:00,50.5,48.6,29.96,NW,326,0.0,1.0,93,0.00,,,0.00,1744,WeatherCatV1.15B25,2013-09-14 13:32:00,
2013-09-14 09:37:00,50.8,48.6,29.96,NNW,327,0.0,1.0,92,0.00,,,0.00,1742,WeatherCatV1.15B25,2013-09-14 13:37:00,
2013-09-14 09:42:00,51.0,48.5,29.97,NW,323,0.0,1.0,91,0.00,,,0.00,1742,WeatherCatV1.15B25,2013-09-14 13:42:00,
2013-09-14 09:47:00,51.3,49.1,29.96,NW,324,0.0,0.0,92,0.00,,,0.00,1740,WeatherCatV1.15B25,2013-09-14 13:47:00,
2013-09-14 09:52:00,51.5,49.3,29.97,NW,323,0.0,0.0,92,0.00,,,0.00,1740,WeatherCatV1.15B25,2013-09-14 13:52:00,
2013-09-14 09:57:00,51.7,49.2,29.97,NW,323,0.0,1.0,91,0.00,,,0.00,1738,WeatherCatV1.15B25,2013-09-14 13:57:00,
2013-09-14 10:02:00,51.8,49.3,29.96,NNW,330,0.0,0.0,91,0.00,,,0.00,1740,WeatherCatV1.15B25,2013-09-14 14:02:00,
2013-09-14 10:07:00,51.9,49.1,29.97,NW,309,1.0,4.0,90,0.00,,,0.00,1740,WeatherCatV1.15B25,2013-09-14 14:07:00,
2013-09-14 10:12:00,52.0,48.9,29.97,NNW,327,0.0,1.0,89,0.00,,,0.00,1740,WeatherCatV1.15B25,2013-09-14 14:12:00,
2013-09-14 10:17:00,52.2,49.4,29.97,North,355,0.0,1.0,90,0.00,,,0.00,1738,WeatherCatV1.15B25,2013-09-14 14:17:00,
2013-09-14 10:22:00,52.4,49.3,29.97,NW,321,1.0,1.0,89,0.00,,,0.00,1740,WeatherCatV1.15B25,2013-09-14 14:22:00,
2013-09-14 10:27:00,52.6,48.8,29.97,NW,320,0.0,0.0,87,0.00,,,0.00,1740,WeatherCatV1.15B25,2013-09-14 14:27:00,
2013-09-14 10:32:00,52.8,49.3,29.97,NNW,328,0.0,3.0,88,0.00,,,0.00,1740,WeatherCatV1.15B25,2013-09-14 14:32:00,
2013-09-14 10:37:00,53.0,49.5,29.97,NNW,328,0.0,0.0,88,0.00,,,0.00,1740,WeatherCatV1.15B25,2013-09-14 14:37:00,
2013-09-14 10:42:00,53.3,50.1,29.97,NNW,336,0.0,3.0,89,0.00,,,0.00,1738,WeatherCatV1.15B25,2013-09-14 14:42:00,
2013-09-14 10:47:00,53.6,50.1,29.97,NW,325,0.0,0.0,88,0.00,,,0.00,1738,WeatherCatV1.15B25,2013-09-14 14:47:00,
2013-09-14 10:52:00,53.8,50.3,29.97,NNW,341,2.0,2.0,88,0.00,,,0.00,1738,WeatherCatV1.15B25,2013-09-14 14:52:00,
2013-09-14 10:57:00,54.0,49.9,29.97,NW,311,0.0,2.0,86,0.00,,,0.00,1738,WeatherCatV1.15B25,2013-09-14 14:57:00,
2013-09-14 11:02:00,54.3,50.2,29.97,NW,311,0.0,0.0,86,0.00,,,0.00,1737,WeatherCatV1.15B25,2013-09-14 15:02:00,
2013-09-14 11:07:00,54.6,50.5,29.97,NW,311,0.0,2.0,86,0.00,,,0.00,1737,WeatherCatV1.15B25,2013-09-14 15:07:00,
2013-09-14 11:12:00,55.0,50.6,29.97,NW,311,1.0,1.0,85,0.00,,,0.00,1735,WeatherCatV1.15B25,2013-09-14 15:12:00,
2013-09-14 11:17:00,55.4,51.6,29.97,NW,311,0.0,1.0,87,0.00,,,0.00,1733,WeatherCatV1.15B25,2013-09-14 15:17:00,
2013-09-14 11:22:00,55.6,51.2,29.97,NW,313,0.0,1.0,85,0.00,,,0.00,1733,WeatherCatV1.15B25,2013-09-14 15:22:00,
2013-09-14 11:27:00,55.7,50.6,29.97,NW,317,0.0,1.0,83,0.00,,,0.00,1731,WeatherCatV1.15B25,2013-09-14 15:27:00,
2013-09-14 11:32:00,55.7,50.9,29.97,NW,317,0.0,0.0,84,0.00,,,0.00,1731,WeatherCatV1.15B25,2013-09-14 15:32:00,
2013-09-14 11:37:00,55.7,50.9,29.97,NW,317,0.0,0.0,84,0.00,,,0.00,1731,WeatherCatV1.15B25,2013-09-14 15:37:00,
2013-09-14 11:42:00,55.9,51.5,29.98,NW,318,0.0,2.0,85,0.00,,,0.00,1731,WeatherCatV1.15B25,2013-09-14 15:42:00,
2013-09-14 11:47:00,55.8,51.0,29.98,NW,318,0.0,0.0,84,0.00,,,0.00,1733,WeatherCatV1.15B25,2013-09-14 15:47:00,
2013-09-14 11:52:00,55.8,50.7,29.98,NW,318,0.0,2.0,83,0.00,,,0.00,1733,WeatherCatV1.15B25,2013-09-14 15:52:00,
2013-09-14 11:57:00,56.0,50.9,29.98,NW,318,0.0,1.0,83,0.00,,,0.00,1733,WeatherCatV1.15B25,2013-09-14 15:57:00,
2013-09-14 12:02:00,56.4,51.6,29.98,NW,318,0.0,0.0,84,0.00,,,0.00,1733,WeatherCatV1.15B25,2013-09-14 16:02:00,
2013-09-14 12:07:00,56.8,51.0,29.98,North,0,0.0,1.0,81,0.00,,,0.00,1730,WeatherCatV1.15B25,2013-09-14 16:07:00,
2013-09-14 12:12:00,56.7,51.3,29.98,NW,317,0.0,2.0,82,0.00,,,0.00,1731,WeatherCatV1.15B25,2013-09-14 16:12:00,
2013-09-14 12:17:00,56.6,51.5,29.98,NW,317,0.0,0.0,83,0.00,,,0.00,1731,WeatherCatV1.15B25,2013-09-14 16:17:00,
2013-09-14 12:22:00,56.5,51.4,29.98,NW,317,0.0,0.0,83,0.00,,,0.00,1733,WeatherCatV1.15B25,2013-09-14 16:22:00,
2013-09-14 12:27:00,56.5,51.4,29.98,NW,315,0.0,2.0,83,0.00,,,0.00,1733,WeatherCatV1.15B25,2013-09-14 16:27:00,
2013-09-14 12:32:00,56.6,51.2,29.99,NW,315,0.0,0.0,82,0.00,,,0.00,1733,WeatherCatV1.15B25,2013-09-14 16:32:00,
2013-09-14 12:37:00,56.8,52.0,29.98,NW,316,0.0,2.0,84,0.00,,,0.00,1733,WeatherCatV1.15B25,2013-09-14 16:37:00,
2013-09-14 12:42:00,56.8,51.4,29.98,NW,315,0.0,0.0,82,0.00,,,0.00,1733,WeatherCatV1.15B25,2013-09-14 16:42:00,
2013-09-14 12:47:00,56.8,52.3,29.98,NW,315,0.0,0.0,85,0.00,,,0.00,1735,WeatherCatV1.15B25,2013-09-14 16:47:00,
2013-09-14 12:52:00,56.9,51.8,29.98,NW,316,0.0,0.0,83,0.00,,,0.00,1735,WeatherCatV1.15B25,2013-09-14 16:52:00,
2013-09-14 12:57:00,57.0,52.2,29.98,NW,316,0.0,0.0,84,0.00,,,0.00,1735,WeatherCatV1.15B25,2013-09-14 16:57:00,
2013-09-14 13:02:00,56.9,51.5,29.98,NW,316,0.0,0.0,82,0.00,,,0.00,1735,WeatherCatV1.15B25,2013-09-14 17:02:00,
2013-09-14 13:07:00,56.9,51.5,29.98,NW,316,0.0,1.0,82,0.00,,,0.00,1735,WeatherCatV1.15B25,2013-09-14 17:07:00,
2013-09-14 13:12:00,56.9,51.8,29.98,NW,316,0.0,0.0,83,0.00,,,0.00,1735,WeatherCatV1.15B25,2013-09-14 17:12:00,
2013-09-14 13:17:00,57.1,52.0,29.98,NW,315,0.0,0.0,83,0.00,,,0.00,1735,WeatherCatV1.15B25,2013-09-14 17:17:00,
2013-09-14 13:22:00,57.3,52.5,29.98,NW,316,0.0,0.0,84,0.00,,,0.00,1735,WeatherCatV1.15B25,2013-09-14 17:22:00,
2013-09-14 13:27:00,57.4,52.3,29.98,NW,316,0.0,0.0,83,0.00,,,0.00,1735,WeatherCatV1.15B25,2013-09-14 17:27:00,
2013-09-14 13:32:00,57.5,52.4,29.98,NW,315,0.0,1.0,83,0.00,,,0.00,1735,WeatherCatV1.15B25,2013-09-14 17:32:00,
2013-09-14 13:37:00,57.5,52.0,29.98,NW,316,0.0,0.0,82,0.00,,,0.00,1735,WeatherCatV1.15B25,2013-09-14 17:37:00,
2013-09-14 13:42:00,57.6,52.1,29.98,NW,316,0.0,0.0,82,0.00,,,0.00,1735,WeatherCatV1.15B25,2013-09-14 17:42:00,
2013-09-14 13:47:00,57.8,52.7,29.98,NW,316,0.0,0.0,83,0.00,,,0.00,1735,WeatherCatV1.15B25,2013-09-14 17:47:00,
2013-09-14 13:52:00,57.9,51.8,29.98,NW,315,0.0,0.0,80,0.00,,,0.00,1735,WeatherCatV1.15B25,2013-09-14 17:52:00,
2013-09-14 13:57:00,57.7,50.5,29.98,NW,315,0.0,0.0,77,0.00,,,0.00,1735,WeatherCatV1.15B25,2013-09-14 17:57:00,
2013-09-14 14:02:00,57.7,51.9,29.98,NW,316,0.0,0.0,81,0.00,,,0.00,1735,WeatherCatV1.15B25,2013-09-14 18:02:00,
2013-09-14 14:07:00,57.8,52.7,29.98,NW,316,0.0,0.0,83,0.00,,,0.00,1735,WeatherCatV1.15B25,2013-09-14 18:07:00,
2013-09-14 14:12:00,57.9,51.8,29.98,NW,315,0.0,0.0,80,0.00,,,0.00,1735,WeatherCatV1.15B25,2013-09-14 18:12:00,
2013-09-14 14:17:00,57.9,52.8,29.99,NW,316,0.0,0.0,83,0.00,,,0.00,1735,WeatherCatV1.15B25,2013-09-14 18:17:00,
2013-09-14 14:22:00,57.9,53.1,29.98,NW,316,0.0,0.0,84,0.00,,,0.00,1735,WeatherCatV1.15B25,2013-09-14 18:22:00,
2013-09-14 14:27:00,57.8,53.0,29.98,NW,316,0.0,0.0,84,0.00,,,0.00,1737,WeatherCatV1.15B25,2013-09-14 18:27:00,
2013-09-14 14:32:00,57.8,52.7,29.98,NW,315,0.0,0.0,83,0.00,,,0.00,1737,WeatherCatV1.15B25,2013-09-14 18:32:00,
2013-09-14 14:37:00,57.8,53.3,29.98,NW,315,0.0,0.0,85,0.00,,,0.00,1737,WeatherCatV1.15B25,2013-09-14 18:37:00,
2013-09-14 14:42:00,57.8,53.0,29.98,NW,315,0.0,0.0,84,0.00,,,0.00,1737,WeatherCatV1.15B25,2013-09-14 18:42:00,
2013-09-14 14:47:00,57.8,52.7,29.98,NW,315,0.0,0.0,83,0.00,,,0.00,1737,WeatherCatV1.15B25,2013-09-14 18:47:00,
2013-09-14 14:52:00,57.7,52.2,29.99,NW,316,0.0,0.0,82,0.00,,,0.00,1738,WeatherCatV1.15B25,2013-09-14 18:52:00,
2013-09-14 14:57:00,57.6,52.1,29.99,NW,316,0.0,0.0,82,0.00,,,0.00,1738,WeatherCatV1.15B25,2013-09-14 18:57:00,
2013-09-14 15:02:00,57.5,52.4,29.99,NW,316,0.0,0.0,83,0.00,,,0.00,1738,WeatherCatV1.15B25,2013-09-14 19:02:00,
2013-09-14 15:07:00,57.5,52.4,29.99,NW,316,0.0,0.0,83,0.00,,,0.00,1738,WeatherCatV1.15B25,2013-09-14 19:07:00,
2013-09-14 15:12:00,57.6,52.5,29.99,NW,315,0.0,0.0,83,0.00,,,0.00,1740,WeatherCatV1.15B25,2013-09-14 19:12:00,
2013-09-14 15:17:00,57.5,52.7,29.99,NW,315,0.0,0.0,84,0.00,,,0.00,1740,WeatherCatV1.15B25,2013-09-14 19:17:00,
2013-09-14 15:22:00,57.5,52.7,29.99,NW,316,0.0,0.0,84,0.00,,,0.00,1740,WeatherCatV1.15B25,2013-09-14 19:22:00,
2013-09-14 15:27:00,57.6,52.5,29.99,NW,316,0.0,0.0,83,0.00,,,0.00,1740,WeatherCatV1.15B25,2013-09-14 19:27:00,
2013-09-14 15:32:00,57.6,52.1,29.99,NW,316,0.0,0.0,82,0.00,,,0.00,1740,WeatherCatV1.15B25,2013-09-14 19:32:00,
2013-09-14 15:37:00,57.6,52.5,29.99,NW,315,0.0,0.0,83,0.00,,,0.00,1742,WeatherCatV1.15B25,2013-09-14 19:37:00,
2013-09-14 15:42:00,57.7,52.9,29.99,NW,316,0.0,0.0,84,0.00,,,0.00,1742,WeatherCatV1.15B25,2013-09-14 19:42:00,
2013-09-14 15:47:00,57.7,52.2,29.99,NW,316,0.0,0.0,82,0.00,,,0.00,1742,WeatherCatV1.15B25,2013-09-14 19:47:00,
2013-09-14 15:52:00,57.7,52.6,29.99,NW,315,0.0,0.0,83,0.00,,,0.00,1742,WeatherCatV1.15B25,2013-09-14 19:52:00,
2013-09-14 15:57:00,57.7,53.2,30.00,NW,316,0.0,0.0,85,0.00,,,0.00,1742,WeatherCatV1.15B25,2013-09-14 19:57:00,
2013-09-14 16:02:00,57.7,52.9,30.00,NW,316,0.0,0.0,84,0.00,,,0.00,1742,WeatherCatV1.15B25,2013-09-14 20:02:00,
2013-09-14 16:07:00,57.6,52.8,30.00,NW,316,0.0,0.0,84,0.00,,,0.00,1744,WeatherCatV1.15B25,2013-09-14 20:07:00,
2013-09-14 16:12:00,57.4,52.6,30.00,NW,315,0.0,0.0,84,0.00,,,0.00,1744,WeatherCatV1.15B25,2013-09-14 20:12:00,
2013-09-14 16:17:00,57.3,52.8,30.00,NW,316,0.0,0.0,85,0.00,,,0.00,1744,WeatherCatV1.15B25,2013-09-14 20:17:00,
2013-09-14 16:22:00,57.3,53.1,30.00,NW,316,0.0,0.0,86,0.00,,,0.00,1746,WeatherCatV1.15B25,2013-09-14 20:22:00,
2013-09-14 16:27:00,57.2,52.7,30.00,NW,315,0.0,0.0,85,0.00,,,0.00,1746,WeatherCatV1.15B25,2013-09-14 20:27:00,
2013-09-14 16:32:00,57.2,52.7,30.00,NW,315,0.0,0.0,85,0.00,,,0.00,1746,WeatherCatV1.15B25,2013-09-14 20:32:00,
2013-09-14 16:37:00,57.2,52.1,30.00,NW,316,0.0,0.0,83,0.00,,,0.00,1746,WeatherCatV1.15B25,2013-09-14 20:37:00,
2013-09-14 16:42:00,57.3,52.5,30.00,NW,316,0.0,0.0,84,0.00,,,0.00,1746,WeatherCatV1.15B25,2013-09-14 20:42:00,
2013-09-14 16:47:00,57.5,52.7,30.00,NW,315,0.0,0.0,84,0.00,,,0.00,1746,WeatherCatV1.15B25,2013-09-14 20:47:00,
2013-09-14 16:52:00,57.5,52.7,30.00,NW,316,0.0,0.0,84,0.00,,,0.00,1746,WeatherCatV1.15B25,2013-09-14 20:52:00,
2013-09-14 16:57:00,57.5,53.0,30.00,NW,316,0.0,0.0,85,0.00,,,0.00,1746,WeatherCatV1.15B25,2013-09-14 20:57:00,
2013-09-14 17:02:00,57.5,53.0,30.01,NW,316,0.0,0.0,85,0.00,,,0.00,1746,WeatherCatV1.15B25,2013-09-14 21:02:00,
2013-09-14 17:07:00,57.5,53.3,30.01,NW,315,0.0,0.0,86,0.00,,,0.00,1747,WeatherCatV1.15B25,2013-09-14 21:07:00,
2013-09-14 17:12:00,57.4,52.9,30.01,NW,316,0.0,0.0,85,0.00,,,0.00,1747,WeatherCatV1.15B25,2013-09-14 21:12:00,
2013-09-14 17:17:00,57.3,53.1,30.01,NW,315,0.0,0.0,86,0.00,,,0.00,1747,WeatherCatV1.15B25,2013-09-14 21:17:00,
2013-09-14 17:22:00,57.3,53.1,30.01,NW,316,0.0,0.0,86,0.00,,,0.00,1747,WeatherCatV1.15B25,2013-09-14 21:22:00,
2013-09-14 17:27:00,57.1,52.9,30.02,NW,316,0.0,0.0,86,0.00,,,0.00,1749,WeatherCatV1.15B25,2013-09-14 21:27:00,
2013-09-14 17:32:00,57.0,53.2,30.02,NW,316,0.0,0.0,87,0.00,,,0.00,1749,WeatherCatV1.15B25,2013-09-14 21:32:00,
2013-09-14 17:37:00,56.9,53.4,30.02,NW,315,0.0,0.0,88,0.00,,,0.00,1749,WeatherCatV1.15B25,2013-09-14 21:37:00,
2013-09-14 17:42:00,56.9,53.7,30.02,NW,316,0.0,0.0,89,0.00,,,0.00,1749,WeatherCatV1.15B25,2013-09-14 21:42:00,
2013-09-14 17:47:00,56.8,53.6,30.02,NW,316,0.0,0.0,89,0.00,,,0.00,1749,WeatherCatV1.15B25,2013-09-14 21:47:00,
2013-09-14 17:52:00,56.8,54.2,30.02,NW,316,0.0,0.0,91,0.00,,,0.00,1751,WeatherCatV1.15B25,2013-09-14 21:52:00,
2013-09-14 17:57:00,56.7,53.5,30.02,NW,316,0.0,0.0,89,0.00,,,0.00,1751,WeatherCatV1.15B25,2013-09-14 21:57:00,
2013-09-14 18:02:00,56.4,52.6,30.03,NW,316,0.0,0.0,87,0.00,,,0.00,1751,WeatherCatV1.15B25,2013-09-14 22:02:00,
2013-09-14 18:07:00,56.3,52.5,30.03,NW,315,0.0,0.0,87,0.00,,,0.00,1751,WeatherCatV1.15B25,2013-09-14 22:07:00,
2013-09-14 18:12:00,56.0,52.2,30.03,NW,315,0.0,0.0,87,0.00,,,0.00,1753,WeatherCatV1.15B25,2013-09-14 22:12:00,
2013-09-14 18:17:00,55.8,51.7,30.03,NW,316,0.0,0.0,86,0.00,,,0.00,1753,WeatherCatV1.15B25,2013-09-14 22:17:00,
2013-09-14 18:22:00,55.7,51.9,30.03,NW,316,0.0,0.0,87,0.00,,,0.00,1753,WeatherCatV1.15B25,2013-09-14 22:22:00,
2013-09-14 18:27:00,55.5,50.7,30.03,NW,315,0.0,0.0,84,0.00,,,0.00,1754,WeatherCatV1.15B25,2013-09-14 22:27:00,
2013-09-14 18:32:00,55.3,50.9,30.03,NW,316,0.0,0.0,85,0.00,,,0.00,1754,WeatherCatV1.15B25,2013-09-14 22:32:00,
2013-09-14 18:37:00,55.3,51.2,30.03,NW,316,0.0,0.0,86,0.00,,,0.00,1754,WeatherCatV1.15B25,2013-09-14 22:37:00,
2013-09-14 18:42:00,55.2,51.1,30.04,NW,316,0.0,0.0,86,0.00,,,0.00,1754,WeatherCatV1.15B25,2013-09-14 22:42:00,
2013-09-14 18:47:00,55.2,50.8,30.04,NW,315,0.0,0.0,85,0.00,,,0.00,1756,WeatherCatV1.15B25,2013-09-14 22:47:00,
2013-09-14 18:50:00,55.2,50.8,30.04,NW,315,0.0,0.0,85,0.00,,,0.00,1756,WeatherCatV1.15B25,2013-09-14 22:50:00,
2013-09-14 18:55:00,55.2,51.1,30.04,NW,316,0.0,0.0,86,0.00,,,0.00,1756,WeatherCatV1.15B25,2013-09-14 22:55:00,
2013-09-14 19:00:00,55.1,50.7,30.05,NW,315,0.0,0.0,85,0.00,,,0.00,1756,WeatherCatV1.15B25,2013-09-14 23:00:00,
2013-09-14 19:05:00,55.1,51.0,30.05,NW,316,0.0,0.0,86,0.00,,,0.00,1756,WeatherCatV1.15B25,2013-09-14 23:05:00,
2013-09-14 19:10:00,55.1,51.0,30.05,NW,316,0.0,0.0,86,0.00,,,0.00,1756,WeatherCatV1.15B25,2013-09-14 23:10:00,
2013-09-14 19:15:00,54.9,51.1,30.05,NW,316,0.0,0.0,87,0.00,,,0.00,1758,WeatherCatV1.15B25,2013-09-14 23:15:00,
2013-09-14 19:20:00,54.8,51.0,30.06,NW,316,0.0,0.0,87,0.00,,,0.00,1758,WeatherCatV1.15B25,2013-09-14 23:20:00,
2013-09-14 19:25:00,54.8,51.3,30.06,NW,316,0.0,0.0,88,0.00,,,0.00,1758,WeatherCatV1.15B25,2013-09-14 23:25:00,
2013-09-14 19:30:00,54.7,51.2,30.06,NW,316,0.0,0.0,88,0.00,,,0.00,1758,WeatherCatV1.15B25,2013-09-14 23:30:00,
2013-09-14 19:35:00,54.6,51.4,30.06,NW,316,0.0,0.0,89,0.00,,,0.00,1758,WeatherCatV1.15B25,2013-09-14 23:35:00,
2013-09-14 19:40:00,54.6,51.4,30.06,NW,315,0.0,0.0,89,0.00,,,0.00,1758,WeatherCatV1.15B25,2013-09-14 23:40:00,
2013-09-14 19:45:00,54.5,51.3,30.06,NW,315,0.0,0.0,89,0.00,,,0.00,1760,WeatherCatV1.15B25,2013-09-14 23:45:00,
2013-09-14 19:50:00,54.4,51.2,30.07,NW,316,0.0,0.0,89,0.00,,,0.00,1760,WeatherCatV1.15B25,2013-09-14 23:50:00,
2013-09-14 19:55:00,54.3,51.1,30.07,NW,316,0.0,0.0,89,0.00,,,0.00,1760,WeatherCatV1.15B25,2013-09-14 23:55:00,
2013-09-14 20:00:00,54.1,50.6,30.07,NW,315,0.0,0.0,88,0.00,,,0.00,1760,WeatherCatV1.15B25,2013-09-15 00:00:00,
2013-09-14 20:05:00,54.0,50.2,30.08,NW,316,0.0,0.0,87,0.00,,,0.00,1760,WeatherCatV1.15B25,2013-09-15 00:05:00,
2013-09-14 20:10:00,53.8,50.0,30.08,NW,315,0.0,0.0,87,0.00,,,0.00,1760,WeatherCatV1.15B25,2013-09-15 00:10:00,
2013-09-14 20:15:00,53.7,49.6,30.08,NW,315,0.0,0.0,86,0.00,,,0.00,1761,WeatherCatV1.15B25,2013-09-15 00:15:00,
2013-09-14 20:20:00,53.5,49.1,30.08,NW,315,0.0,0.0,85,0.00,,,0.00,1761,WeatherCatV1.15B25,2013-09-15 00:20:00,
2013-09-14 20:25:00,53.4,49.0,30.08,NW,316,0.0,0.0,85,0.00,,,0.00,1761,WeatherCatV1.15B25,2013-09-15 00:25:00,
2013-09-14 20:30:00,53.2,48.5,30.08,NW,316,0.0,0.0,84,0.00,,,0.00,1763,WeatherCatV1.15B25,2013-09-15 00:30:00,
2013-09-14 20:35:00,53.1,48.4,30.08,NW,315,0.0,0.0,84,0.00,,,0.00,1763,WeatherCatV1.15B25,2013-09-15 00:35:00,
2013-09-14 20:40:00,52.9,48.2,30.08,NW,316,0.0,0.0,84,0.00,,,0.00,1763,WeatherCatV1.15B25,2013-09-15 00:40:00,
2013-09-14 20:45:00,52.7,48.0,30.09,NW,316,0.0,0.0,84,0.00,,,0.00,1763,WeatherCatV1.15B25,2013-09-15 00:45:00,
2013-09-14 20:50:00,52.4,47.7,30.09,NW,315,0.0,0.0,84,0.00,,,0.00,1763,WeatherCatV1.15B25,2013-09-15 00:50:00,
2013-09-14 20:55:00,52.3,47.9,30.09,NW,315,0.0,0.0,85,0.00,,,0.00,1765,WeatherCatV1.15B25,2013-09-15 00:55:00,
2013-09-14 21:00:00,52.2,47.8,30.09,NW,316,0.0,0.0,85,0.00,,,0.00,1765,WeatherCatV1.15B25,2013-09-15 01:00:00,
2013-09-14 21:05:00,52.0,47.3,30.09,NW,315,0.0,0.0,84,0.00,,,0.00,1765,WeatherCatV1.15B25,2013-09-15 01:05:00,
2013-09-14 21:10:00,51.9,47.5,30.09,NW,315,0.0,0.0,85,0.00,,,0.00,1765,WeatherCatV1.15B25,2013-09-15 01:10:00,
2013-09-14 21:15:00,51.8,47.4,30.10,NW,316,0.0,0.0,85,0.00,,,0.00,1767,WeatherCatV1.15B25,2013-09-15 01:15:00,
2013-09-14 21:20:00,51.6,46.9,30.09,NW,316,0.0,0.0,84,0.00,,,0.00,1767,WeatherCatV1.15B25,2013-09-15 01:20:00,
2013-09-14 21:25:00,51.5,46.8,30.09,NW,316,0.0,0.0,84,0.00,,,0.00,1767,WeatherCatV1.15B25,2013-09-15 01:25:00,
2013-09-14 21:30:00,51.4,46.7,30.09,NW,315,0.0,0.0,84,0.00,,,0.00,1767,WeatherCatV1.15B25,2013-09-15 01:30:00,
2013-09-14 21:35:00,51.3,46.6,30.09,NW,316,0.0,0.0,84,0.00,,,0.00,1768,WeatherCatV1.15B25,2013-09-15 01:35:00,
2013-09-14 21:40:00,51.2,46.5,30.09,NW,316,0.0,0.0,84,0.00,,,0.00,1768,WeatherCatV1.15B25,2013-09-15 01:40:00,
2013-09-14 21:45:00,51.1,46.7,30.09,NW,315,0.0,0.0,85,0.00,,,0.00,1768,WeatherCatV1.15B25,2013-09-15 01:45:00,
2013-09-14 21:50:00,51.0,46.3,30.10,NW,316,0.0,0.0,84,0.00,,,0.00,1768,WeatherCatV1.15B25,2013-09-15 01:50:00,
2013-09-14 21:55:00,51.0,46.3,30.09,NW,316,0.0,0.0,84,0.00,,,0.00,1768,WeatherCatV1.15B25,2013-09-15 01:55:00,
2013-09-14 22:00:00,50.9,46.2,30.10,NW,315,0.0,0.0,84,0.00,,,0.00,1770,WeatherCatV1.15B25,2013-09-15 02:00:00,
2013-09-14 22:05:00,50.9,46.2,30.10,NW,316,0.0,0.0,84,0.00,,,0.00,1770,WeatherCatV1.15B25,2013-09-15 02:05:00,
2013-09-14 22:10:00,50.9,46.2,30.10,NW,316,0.0,0.0,84,0.00,,,0.00,1770,WeatherCatV1.15B25,2013-09-15 02:10:00,
2013-09-14 22:15:00,50.8,46.1,30.10,NW,316,0.0,0.0,84,0.00,,,0.00,1770,WeatherCatV1.15B25,2013-09-15 02:15:00,
2013-09-14 22:20:00,50.6,46.3,30.10,NW,315,0.0,0.0,85,0.00,,,0.00,1770,WeatherCatV1.15B25,2013-09-15 02:20:00,
2013-09-14 22:25:00,50.6,46.3,30.10,NW,316,0.0,0.0,85,0.00,,,0.00,1772,WeatherCatV1.15B25,2013-09-15 02:25:00,
2013-09-14 22:30:00,50.6,46.3,30.10,NW,316,0.0,0.0,85,0.00,,,0.00,1772,WeatherCatV1.15B25,2013-09-15 02:30:00,
2013-09-14 22:35:00,50.6,46.3,30.10,NW,316,0.0,0.0,85,0.00,,,0.00,1772,WeatherCatV1.15B25,2013-09-15 02:35:00,
2013-09-14 22:40:00,50.6,46.3,30.11,NW,315,0.0,0.0,85,0.00,,,0.00,1772,WeatherCatV1.15B25,2013-09-15 02:40:00,
2013-09-14 22:45:00,50.5,46.5,30.11,NW,316,0.0,0.0,86,0.00,,,0.00,1772,WeatherCatV1.15B25,2013-09-15 02:45:00,
2013-09-14 22:50:00,50.4,46.1,30.10,NW,315,0.0,0.0,85,0.00,,,0.00,1774,WeatherCatV1.15B25,2013-09-15 02:50:00,
2013-09-14 22:55:00,50.3,46.0,30.11,NW,315,0.0,0.0,85,0.00,,,0.00,1774,WeatherCatV1.15B25,2013-09-15 02:55:00,
2013-09-14 23:00:00,50.2,46.2,30.11,NW,316,0.0,0.0,86,0.00,,,0.00,1774,WeatherCatV1.15B25,2013-09-15 03:00:00,
2013-09-14 23:05:00,50.1,46.1,30.11,NW,316,0.0,0.0,86,0.00,,,0.00,1774,WeatherCatV1.15B25,2013-09-15 03:05:00,
2013-09-14 23:10:00,50.1,46.1,30.11,NW,315,0.0,0.0,86,0.00,,,0.00,1774,WeatherCatV1.15B25,2013-09-15 03:10:00,
2013-09-14 23:15:00,50.0,46.0,30.11,NW,316,0.0,0.0,86,0.00,,,0.00,1774,WeatherCatV1.15B25,2013-09-15 03:15:00,
2013-09-14 23:20:00,49.9,45.9,30.11,NW,316,0.0,0.0,86,0.00,,,0.00,1774,WeatherCatV1.15B25,2013-09-15 03:20:00,
2013-09-14 23:25:00,49.8,45.8,30.11,NW,316,0.0,0.0,86,0.00,,,0.00,1775,WeatherCatV1.15B25,2013-09-15 03:25:00,
2013-09-14 23:30:00,49.7,46.0,30.11,NW,315,0.0,0.0,87,0.00,,,0.00,1775,WeatherCatV1.15B25,2013-09-15 03:30:00,
2013-09-14 23:35:00,49.6,45.9,30.12,NW,315,0.0,0.0,87,0.00,,,0.00,1775,WeatherCatV1.15B25,2013-09-15 03:35:00,
2013-09-14 23:40:00,49.4,46.0,30.11,NW,316,0.0,0.0,88,0.00,,,0.00,1775,WeatherCatV1.15B25,2013-09-15 03:40:00,
2013-09-14 23:45:00,49.2,45.8,30.11,NW,315,0.0,0.0,88,0.00,,,0.00,1775,WeatherCatV1.15B25,2013-09-15 03:45:00,
2013-09-14 23:50:00,49.0,45.6,30.12,NW,315,0.0,0.0,88,0.00,,,0.00,1777,WeatherCatV1.15B25,2013-09-15 03:50:00,
2013-09-14 23:55:00,48.8,45.4,30.12,NW,315,0.0,0.0,88,0.00,,,0.00,1777,WeatherCatV1.15B25,2013-09-15 03:55:00,